Powrót do katalogu

NOAA 17 DEB

AktywnyPO
NORAD 48755·DEBRIS·🇺🇸 United States

Wystrzelony Jun 24, 2002 z Vandenberg Space Force Base

Loading…

Następne Przeloty (najbliższe 24 godziny)

TLE

ŚwieżeSource: Space-Track

Epoka: Sep 12, 2026, 02:23 UTC

1 48755U 02032CQ  26255.09956545  .00032538  00000-0  20976-2 0  9996
2 48755  98.6910 312.4900 0007311 355.2316   4.8838 15.08221104289992

Śledź NOAA 17 DEB w czasie rzeczywistym z AllMySat

Download on the App Store